Date,TemperatureHighF,TemperatureAvgF,TemperatureLowF,DewpointHighF,DewpointAvgF,DewpointLowF,HumidityHigh,HumidityAvg,HumidityLow,PressureMaxIn,PressureMinIn,WindSpeedMaxMPH,WindSpeedAvgMPH,GustSpeedMaxMPH,PrecipitationSumIn
2013-3-1,42.4,35.1,31.6,27.0,24.2,21.3,77,65,52,29.88,29.83,10,4,18,0.00
2013-3-2,40.5,33.8,27.9,29.7,22.7,14.2,89,65,46,29.88,29.80,11,5,18,0.00
2013-3-3,35.2,27.8,23.4,15.3,11.7,8.7,61,51,42,29.94,29.85,14,6,25,0.00
2013-3-4,55.0,37.4,24.8,21.2,11.9,-10.4,55,39,7,30.06,29.91,12,4,19,0.00
2013-3-5,54.0,43.5,34.9,46.4,33.7,19.9,95,69,49,30.00,29.65,9,2,18,0.71
2013-3-6,36.0,30.1,26.1,26.0,21.6,17.3,86,71,54,30.09,29.65,12,7,29,0.00
2013-3-7,46.6,33.6,28.0,27.4,22.4,20.1,79,64,45,30.21,30.06,11,6,23,0.00
2013-3-8,52.0,37.4,27.5,26.5,21.1,15.9,76,54,35,30.24,30.15,11,5,18,0.00
2013-3-9,62.8,43.8,23.5,32.6,23.0,14.5,76,47,26,30.27,30.18,7,2,12,0.00
2013-3-10,64.9,55.0,37.6,35.5,30.2,22.4,59,39,33,30.21,30.12,10,3,13,0.00
2013-3-11,57.6,51.9,48.6,51.6,45.0,29.6,94,79,41,30.12,29.83,9,4,13,0.62
2013-3-12,54.3,47.1,38.5,52.0,36.7,25.0,95,70,40,30.00,29.77,10,4,17,0.29
2013-3-13,48.7,38.6,29.3,28.7,21.5,11.9,79,51,35,30.12,29.97,13,5,21,0.00
2013-3-14,48.6,34.5,24.8,17.3,9.5,-11.9,51,38,8,30.21,30.09,11,5,20,0.00
2013-3-15,70.2,47.9,27.1,38.4,24.7,9.9,60,42,22,30.12,29.91,9,2,18,0.00
2013-3-16,77.7,64.0,44.2,44.9,39.2,32.4,71,41,26,29.94,29.80,9,4,18,0.00
2013-3-17,74.3,59.7,47.8,46.5,41.7,36.6,79,53,33,30.00,29.88,8,3,14,0.00
2013-3-18,48.9,42.7,38.5,43.5,38.8,34.5,97,86,74,30.03,29.83,9,4,9,0.41
2013-3-19,58.5,46.5,38.3,43.0,23.0,-12.3,98,51,6,30.03,29.85,7,2,7,0.00
2013-3-20,56.7,43.2,31.5,30.5,-5.7,-14.2,88,15,6,30.03,29.80,0,0,0,0.00
2013-3-21,38.7,30.2,22.3,23.6,12.3,6.4,75,48,33,29.88,29.77,0,0,0,0.00
2013-3-22,49.6,36.7,23.5,21.6,12.8,-3.6,48,38,19,29.97,29.88,0,0,0,0.00
2013-3-23,61.5,45.0,36.0,41.9,30.5,16.4,83,58,40,29.97,29.85,0,0,0,0.05
2013-3-24,46.2,42.4,38.3,41.2,38.2,35.5,96,85,68,29.88,29.53,0,0,0,0.66
2013-3-25,39.9,35.7,30.2,37.4,21.3,15.3,94,57,43,29.85,29.53,0,0,0,0.00
2013-3-26,40.3,32.5,28.0,24.0,21.2,18.6,77,64,49,30.12,29.83,0,0,0,0.00
2013-3-27,46.8,36.4,29.7,25.3,20.9,16.2,82,54,40,30.18,30.09,0,0,0,0.00
2013-3-28,54.9,39.1,26.6,25.5,18.1,13.5,61,44,26,30.21,27.93,6,0,9,0.00
2013-3-29,61.3,40.8,25.3,34.5,23.5,12.7,76,52,28,28.02,27.97,8,2,16,0.00
2013-3-30,63.5,50.4,40.3,45.5,37.7,33.5,88,64,42,27.97,27.82,6,2,10,0.12
2013-3-31,67.6,54.9,48.2,52.7,46.7,35.7,91,75,46,29.88,27.64,6,2,10,0.21